This demonstration page uses our WeatherBlox Daily Observations layout. Learn more.

39.92423, -83.80882

Hourly Observations for June 22, 2017

Temp ( °F °C ) Dew Point ( °F °C ) Humidity (%) Winds ( mph kmh ) Pressure ( in mb ) Visibility ( mi km ) Precip ( " mm )
6:56 am 06:56 Sunny 71 21.7 68 20 90 90 SSW 6 9 29.98 1015 10 16.0934 0 0
7:56 am 07:56 Sunny 73 22.8 68 20 84 84 SW 9 15 29.98 1015 10 16.0934 0 0
8:56 am 08:56 Sunny 75 23.9 69 20.6 82 82 SW 6 9 30 1016 10 16.0934 0.08 2.032
9:56 am 09:56 Sunny 77 25 70 21.1 79 79 SSW 7 11 30.01 1016 10 16.0934 0 0
10:56 am 10:56 Sunny 78 25.6 70 21.1 76 76 SSW 7 11 30 1016 10 16.0934 0 0
11:56 am 11:56 Mostly Sunny 81 27.2 70 21.1 69 69 SW 10 17 29.99 1016 10 16.0934 0 0
12:56 pm 12:56 Partly Cloudy 81 27.2 69 20.6 67 67 SW 14 22 29.99 1016 10 16.0934 0 0
1:38 pm 13:38 Mostly Cloudy 81 27 70 21 70 70 SSW 12 19 29.94 1014 10 16.0934 0 0
1:46 pm 13:46 Partly Cloudy 81 27 70 21 70 70 SW 13 20 29.94 1014 10 16.0934 0 0
1:56 pm 13:56 Partly Cloudy 82 27.8 70 21.1 67 67 SW 14 22 29.97 1015 10 16.0934 0 0
2:56 pm 14:56 Mostly Cloudy 81 27.2 69 20.6 67 67 SSW 12 19 29.96 1015 10 16.0934 0 0
3:56 pm 15:56 Mostly Sunny 81 27.2 70 21.1 69 69 SW 12 19 29.94 1014 10 16.0934 0 0
4:56 pm 16:56 Mostly Cloudy 82 27.8 70 21.1 67 67 SSW 13 20 29.92 1013 10 16.0934 0 0
5:56 pm 17:56 Sunny 80 26.7 68 20 67 67 S 9 15 29.91 1013 10 16.0934 0 0
6:56 pm 18:56 Cloudy 79 26.1 68 20 69 69 SSW 15 24 29.9 1013 10 16.0934 0 0
7:56 pm 19:56 Mostly Sunny 77 25 67 19.4 71 71 S 13 20 29.89 1012 10 16.0934 0 0
8:21 pm 20:21 Mostly Cloudy 75 24 66 19 74 74 S 14 22 29.88 1012 10 16.0934 0 0
8:30 pm 20:30 Mostly Cloudy 75 24 66 19 74 74 S 9 15 29.88 1012 10 16.0934 0 0
8:42 pm 20:42 Mostly Cloudy 75 24 66 19 74 74 SSW 8 13 29.88 1012 10 16.0934 0 0
8:56 pm 20:56 Cloudy 75 23.9 67 19.4 76 76 S 8 13 29.89 1012 10 16.0934 0 0
9:56 pm 21:56 Cloudy 73 22.8 68 20 84 84 S 7 11 29.89 1012 10 16.0934 0 0
10:30 pm 22:30 Cloudy 72 22 68 20 88 88 S 8 13 29.88 1012 10 16.0934 0 0
10:44 pm 22:44 Mostly Cloudy 72 22 68 20 88 88 S 8 13 29.88 1012 10 16.0934 0 0
10:56 pm 22:56 Mostly Cloudy 71 21.7 68 20 90 90 S 8 13 29.89 1012 10 16.0934 0 0
11:31 pm 23:31 Mostly Cloudy 72 22 68 20 88 88 S 5 7 29.88 1012 10 16.0934 0 0
11:56 pm 23:56 Cloudy 71 21.7 68 20 90 90 S 8 13 29.88 1012 10 16.0934 0 0

Powered by AerisWeather